SCP
0 0 0 0 0 0 0 0 1 0 0 0 0 1 0 0 0 0 0 0 0 0 0 0 0 0 -0 0 -0 0 -0 0
0 0 0 0 0 1 1 1 1 0 0 0 0 0 0 0 0 0 0 0 0 0 0 0 -0 -0 -0 -0 -0 0 0 -0
0 0 0 0 1 0 0 0 0 0 0 0 0 0 0 0 0 0 0 0 0 0 0 -0 -0 0 0 -0 -0 0 -0 0
0 0 0 0 0 0 0 0 0 0 0 0 0 0 0 0 0 0 0 0 0 0 -0 -0 0 0 -0 -0 0 0 0 0
0 0 0 0 0 0 0 0 0 0 0 0 0 0 0 0 0 0 0 0 -0 0 0 0 0 0 -0 0 0 0 0 0
0 0 0 0 0 0 0 0 0 0 0 0 0 0 0 0 0 0 0 0 0 0 0 0 -0 -0 0 0 0 0 0 0
0 0 0 0 0 0 0 0 0 0 0 0 0 0 0 0 0 0 0 0 0 0 0 0 -0 0 0 0 -0 0 0 0
0 0 0 0 0 0 0 0 0 0 0 0 0 0 0 0 0 0 0 0 0 0 0 -0 0 0 -0 0 -0 0 -0 -0
0 0 0 0 0 0 0 0 0 0 0 0 0 0 0 0 0 0 0 0 0 0 0 -0 0 0 -0 -0 -0 0 0 0
0 0 0 0 0 0 0 0 0 0 0 0 0 0 0 0 0 0 0 0 0 0 0 0 -0 -0 -0 -0 -0 -0 -0 -0
0 0 0 0 0 0 0 0 0 0 0 0 0 0 0 0 0 0 0 0 0 0 0 0 0 -0 0 0 -0 -0 -0 -0
0 0 0 0 0 0 0 0 0 0 0 0 0 0 0 0 0 0 0 -0 0 0 0 0 0 0 0 0 0 0 0 0
0 0 0 0 0 0 0 0 0 0 0 0 0 0 0 0 0 0 0 -0 -0 0 0 0 0 0 0 0 0 0 0 0
0 0 0 0 0 0 0 0 0 0 0 0 0 0 0 0 0 0 0 0 0 0 0 0 0 0 0 0 0 0 0 0
0 0 0 0 0 0 0 0 0 0 0 0 0 0 0 0 0 0 0 0 0 0 0 0 0 0 0 0 0 0 0 0
0 0 0 0 0 0 0 0 0 0 0 0 0 0 0 0 0 0 0 0 0 0 0 0 0 0 0 0 0 0 0 0
0 0 0 0 0 0 0 0 0 0 0 0 0 0 0 0 0 0 0 0 0 0 0 0 0 0 0 0 0 0 0 0
0 0 0 0 0 0 0 0 0 0 0 0 0 0 0 0 0 0 0 0 0 0 0 0 0 0 0 0 0 0 0 0
0 0 0 0 0 0 0 0 0 0 0 0 0 0 0 0 0 -0 0 0 0 0 -0 -0 0 0 0 0 0 0 0 0
0 0 0 0 0 0 0 0 0 0 0 0 0 -0 0 0 0 0 0 0 0 0 -0 0 0 0 0 0 0 0 0 0
Wind_Speed_500mb
28 28 30 22 30 35 38 38 37 36 41 38 32 31 38 39 37 42 40 39 41 47 45 32 20 23 21 23 20 22 22 22
31 31 35 39 41 39 41 38 32 35 23 24 32 35 38 37 40 45 37 47 36 41 31 19 17 17 17 20 19 20 22 25
31 34 37 40 39 40 41 32 25 20 19 27 31 33 35 34 45 43 42 42 36 28 25 16 16 12 14 18 19 21 23 18
34 35 37 40 41 44 40 29 17 19 23 29 31 33 29 41 42 39 37 33 25 23 19 14 13 12 11 17 21 20 25 25
31 36 42 45 42 40 30 19 18 23 26 28 30 30 33 38 35 34 36 31 21 18 18 15 15 15 14 18 16 23 32 39
37 43 46 40 38 30 20 17 20 24 26 27 28 32 33 31 30 33 35 28 20 19 20 22 18 18 16 9 13 18 23 29
39 43 41 34 31 23 17 18 21 23 25 25 28 32 27 29 27 33 30 24 23 22 21 23 23 22 18 15 25 26 26 29
42 41 37 31 25 18 16 19 21 23 24 24 27 27 29 26 23 23 21 24 22 19 23 26 25 22 18 14 21 23 23 30
40 37 35 28 19 14 15 19 21 22 20 21 24 24 29 23 25 20 23 22 22 25 24 26 28 31 27 21 18 26 27 28
38 38 33 23 16 15 17 19 20 18 19 19 20 24 22 20 20 17 19 20 20 22 22 25 32 36 32 26 24 20 21 29
36 35 27 18 13 17 17 18 20 20 17 18 19 22 18 20 19 19 18 16 17 20 21 23 32 26 32 38 29 26 21 23
35 31 22 13 12 16 17 18 18 19 19 19 17 16 15 20 19 19 18 17 15 16 19 21 26 24 26 30 31 31 34 36
32 27 18 11 13 15 16 17 20 18 18 18 19 15 12 14 17 21 17 16 12 13 17 20 22 17 21 23 23 28 36 39
29 22 14 10 13 15 15 16 16 15 18 14 21 14 18 10 12 12 20 21 20 16 14 14 17 20 23 26 26 25 27 30
25 18 9 11 13 13 13 14 14 14 19 15 18 15 13 10 12 9 6 12 16 18 15 13 11 14 22 23 28 26 26 26
22 13 9 11 13 11 11 13 12 12 9 20 20 19 12 11 10 9 6 10 6 9 12 12 12 16 20 22 23 23 20 21
19 11 10 10 13 11 9 11 10 15 10 9 13 18 17 12 12 9 9 9 7 7 8 13 14 16 19 19 17 15 14 15
17 13 8 8 10 10 9 12 13 9 8 11 13 9 10 13 15 14 11 13 8 3 5 11 8 9 10 11 18 14 13 13
13 8 4 5 6 8 8 7 12 6 5 1 8 8 6 7 11 11 6 5 7 5 8 5 9 11 11 10 11 14 11 14
9 5 5 8 5 6 8 5 13 6 7 6 5 3 6 10 11 11 10 7 3 6 6 8 12 10 8 8 8 9 11 15
Wind_Direction_500mb
340 348 337 1 347 330 324 320 318 296 294 299 313 320 322 323 321 308 312 313 317 320 317 306 314 318 327 330 319 319 324 318
5 351 346 339 337 339 333 332 311 306 315 325 322 326 327 328 312 316 317 321 324 332 334 330 329 333 329 336 340 340 333 322
353 352 346 335 338 335 335 334 337 336 339 333 332 333 335 317 324 324 324 321 318 332 336 342 354 356 355 357 355 347 353 2
352 345 343 339 335 335 337 338 350 358 347 342 342 343 339 336 339 343 341 331 336 336 347 11 14 2 32 10 5 21 27 37
350 344 340 335 334 335 337 348 355 355 352 352 351 347 354 353 352 355 359 4 16 34 31 23 42 39 49 27 31 58 48 51
346 340 336 337 336 336 338 349 353 353 355 359 352 4 4 1 6 17 21 27 45 40 35 55 54 53 40 20 27 40 37 36
344 339 339 341 338 340 346 354 352 356 3 358 9 5 4 11 12 16 21 44 49 44 42 45 52 54 48 25 43 61 66 61
345 344 343 342 343 350 356 356 356 6 0 10 12 6 15 9 11 12 25 32 42 47 50 56 47 41 56 50 53 63 75 68
345 346 346 343 346 359 5 360 5 4 0 18 12 20 34 17 33 42 28 37 47 53 54 53 59 46 41 44 70 88 75 78
347 346 347 347 358 3 6 4 8 350 13 18 13 23 27 18 18 21 31 45 43 50 56 61 55 55 51 49 67 94 90 90
348 349 350 354 12 14 9 6 7 352 16 17 9 20 17 29 17 26 35 49 55 46 52 57 51 51 58 58 71 71 81 102
347 348 353 358 9 6 11 10 346 3 25 14 13 16 31 31 22 22 30 27 51 50 46 51 57 41 76 72 60 79 84 86
345 346 352 1 358 3 8 10 340 6 27 18 4 1 22 4 26 44 55 48 60 64 69 39 54 57 83 82 90 99 99 92
341 343 344 347 350 355 3 1 2 18 20 17 15 21 7 14 13 54 59 57 56 49 58 81 48 76 93 94 95 102 106 110
338 337 338 341 347 354 1 352 16 25 22 7 26 21 23 26 26 61 78 56 47 30 45 69 79 89 108 107 105 101 106 98
335 329 328 333 343 342 359 341 12 29 354 28 35 17 33 46 34 60 19 23 40 34 49 73 94 107 115 115 111 110 103 103
331 324 312 323 335 335 348 333 351 16 17 21 66 42 49 62 38 44 38 44 78 110 53 72 101 107 120 125 114 110 116 121
326 320 298 312 325 330 346 319 340 10 9 100 83 51 57 56 56 56 52 12 38 43 110 123 128 101 112 127 106 111 111 121
324 299 275 293 300 321 340 327 326 342 347 23 94 39 24 6 360 348 26 41 10 67 94 154 140 119 109 109 109 97 103 102
317 270 264 281 275 312 327 341 301 312 334 253 252 289 333 6 343 357 356 337 16 135 121 139 131 93 92 69 73 80 94 112
Wind_Speed_850mb
28 28 30 22 30 35 38 38 37 36 41 38 32 31 38 39 37 42 40 39 41 47 45 32 20 23 21 23 20 22 22 22
31 31 35 39 41 39 41 38 32 35 23 24 32 35 38 37 40 45 37 47 36 41 31 19 17 17 17 20 19 20 22 25
31 34 37 40 39 40 41 32 25 20 19 27 31 33 35 34 45 43 42 42 36 28 25 16 16 12 14 18 19 21 23 18
34 35 37 40 41 44 40 29 17 19 23 29 31 33 29 41 42 39 37 33 25 23 19 14 13 12 11 17 21 20 25 25
31 36 42 45 42 40 30 19 18 23 26 28 30 30 33 38 35 34 36 31 21 18 18 15 15 15 14 18 16 23 32 39
37 43 46 40 38 30 20 17 20 24 26 27 28 32 33 31 30 33 35 28 20 19 20 22 18 18 16 9 13 18 23 29
39 43 41 34 31 23 17 18 21 23 25 25 28 32 27 29 27 33 30 24 23 22 21 23 23 22 18 15 25 26 26 29
42 41 37 31 25 18 16 19 21 23 24 24 27 27 29 26 23 23 21 24 22 19 23 26 25 22 18 14 21 23 23 30
40 37 35 28 19 14 15 19 21 22 20 21 24 24 29 23 25 20 23 22 22 25 24 26 28 31 27 21 18 26 27 28
38 38 33 23 16 15 17 19 20 18 19 19 20 24 22 20 20 17 19 20 20 22 22 25 32 36 32 26 24 20 21 29
36 35 27 18 13 17 17 18 20 20 17 18 19 22 18 20 19 19 18 16 17 20 21 23 32 26 32 38 29 26 21 23
35 31 22 13 12 16 17 18 18 19 19 19 17 16 15 20 19 19 18 17 15 16 19 21 26 24 26 30 31 31 34 36
32 27 18 11 13 15 16 17 20 18 18 18 19 15 12 14 17 21 17 16 12 13 17 20 22 17 21 23 23 28 36 39
29 22 14 10 13 15 15 16 16 15 18 14 21 14 18 10 12 12 20 21 20 16 14 14 17 20 23 26 26 25 27 30
25 18 9 11 13 13 13 14 14 14 19 15 18 15 13 10 12 9 6 12 16 18 15 13 11 14 22 23 28 26 26 26
22 13 9 11 13 11 11 13 12 12 9 20 20 19 12 11 10 9 6 10 6 9 12 12 12 16 20 22 23 23 20 21
19 11 10 10 13 11 9 11 10 15 10 9 13 18 17 12 12 9 9 9 7 7 8 13 14 16 19 19 17 15 14 15
17 13 8 8 10 10 9 12 13 9 8 11 13 9 10 13 15 14 11 13 8 3 5 11 8 9 10 11 18 14 13 13
13 8 4 5 6 8 8 7 12 6 5 1 8 8 6 7 11 11 6 5 7 5 8 5 9 11 11 10 11 14 11 14
9 5 5 8 5 6 8 5 13 6 7 6 5 3 6 10 11 11 10 7 3 6 6 8 12 10 8 8 8 9 11 15
Wind_Direction_850mb
340 348 337 1 347 330 324 320 318 296 294 299 313 320 322 323 321 308 312 313 317 320 317 306 314 318 327 330 319 319 324 318
5 351 346 339 337 339 333 332 311 306 315 325 322 326 327 328 312 316 317 321 324 332 334 330 329 333 329 336 340 340 333 322
353 352 346 335 338 335 335 334 337 336 339 333 332 333 335 317 324 324 324 321 318 332 336 342 354 356 355 357 355 347 353 2
352 345 343 339 335 335 337 338 350 358 347 342 342 343 339 336 339 343 341 331 336 336 347 11 14 2 32 10 5 21 27 37
350 344 340 335 334 335 337 348 355 355 352 352 351 347 354 353 352 355 359 4 16 34 31 23 42 39 49 27 31 58 48 51
346 340 336 337 336 336 338 349 353 353 355 359 352 4 4 1 6 17 21 27 45 40 35 55 54 53 40 20 27 40 37 36
344 339 339 341 338 340 346 354 352 356 3 358 9 5 4 11 12 16 21 44 49 44 42 45 52 54 48 25 43 61 66 61
345 344 343 342 343 350 356 356 356 6 0 10 12 6 15 9 11 12 25 32 42 47 50 56 47 41 56 50 53 63 75 68
345 346 346 343 346 359 5 360 5 4 0 18 12 20 34 17 33 42 28 37 47 53 54 53 59 46 41 44 70 88 75 78
347 346 347 347 358 3 6 4 8 350 13 18 13 23 27 18 18 21 31 45 43 50 56 61 55 55 51 49 67 94 90 90
348 349 350 354 12 14 9 6 7 352 16 17 9 20 17 29 17 26 35 49 55 46 52 57 51 51 58 58 71 71 81 102
347 348 353 358 9 6 11 10 346 3 25 14 13 16 31 31 22 22 30 27 51 50 46 51 57 41 76 72 60 79 84 86
345 346 352 1 358 3 8 10 340 6 27 18 4 1 22 4 26 44 55 48 60 64 69 39 54 57 83 82 90 99 99 92
341 343 344 347 350 355 3 1 2 18 20 17 15 21 7 14 13 54 59 57 56 49 58 81 48 76 93 94 95 102 106 110
338 337 338 341 347 354 1 352 16 25 22 7 26 21 23 26 26 61 78 56 47 30 45 69 79 89 108 107 105 101 106 98
335 329 328 333 343 342 359 341 12 29 354 28 35 17 33 46 34 60 19 23 40 34 49 73 94 107 115 115 111 110 103 103
331 324 312 323 335 335 348 333 351 16 17 21 66 42 49 62 38 44 38 44 78 110 53 72 101 107 120 125 114 110 116 121
326 320 298 312 325 330 346 319 340 10 9 100 83 51 57 56 56 56 52 12 38 43 110 123 128 101 112 127 106 111 111 121
324 299 275 293 300 321 340 327 326 342 347 23 94 39 24 6 360 348 26 41 10 67 94 154 140 119 109 109 109 97 103 102
317 270 264 281 275 312 327 341 301 312 334 253 252 289 333 6 343 357 356 337 16 135 121 139 131 93 92 69 73 80 94 112